Date String (YYYY-MM-DD hh:mm:ss) UTC,Instrument flags,absolute air pressure of the measurement (hPa),sample flow rate (lpm),inlet stack bypass flow (lpm),air temperature of the measurement (°C),ambient temperature measured by the external sensor (°C),aerosol sample conditioner tube jacket temperature (°C),OPC LED temperature (°C),internal box temperature (°C),relative humidity of the measurement (%),span deviation,mass concentration of particles derived from Lorenz-Mie calculation of OPC scattering (μg/m³),mass concentration of particles derived from Lorenz-Mie calculation of OPC scattering (μg/m³),mass concentration of particles derived from Lorenz-Mie calculation of OPC scattering (μg/m³)
DateTimeUTC,F1_M11,P_M11,Q1_M11,Q2_M11,T1_M11,T2_M11,T3_M11,T4_M11,T5_M11,U1_M11,ZSPAN_M11,X2_M11,X0_M11,X1_M11
2023-12-02 15:00:00,SystemResetWarning,0821.1,5.00,000.00,018.8,017.1,000.0,027.2,020.0,11.0,0000.0,0000.86,0001.75,0000.65
2023-12-02 15:01:00,SystemResetWarning,0821.1,5.01,000.00,018.7,017.1,000.0,027.2,020.0,11.0,0000.0,0000.87,0001.77,0000.64
2023-12-02 15:02:00,SystemResetWarning,0821.1,5.00,000.00,018.7,017.1,000.0,027.2,020.0,11.0,0000.0,0000.86,0001.94,0000.63
2023-12-02 15:03:00,SystemResetWarning,0821.3,5.00,000.00,018.8,017.6,000.0,027.2,020.4,11.1,0000.0,0000.84,0002.05,0000.62
2023-12-02 15:04:00,SystemResetWarning,0821.2,5.00,000.00,018.9,018.7,000.0,027.2,020.9,11.0,0000.0,0000.86,0002.01,0000.63
2023-12-02 15:05:00,SystemResetWarning,0821.1,4.99,000.00,019.1,019.3,000.0,027.2,020.9,11.0,0000.0,0000.85,0001.95,0000.63
2023-12-02 15:06:00,SystemResetWarning,0821.1,4.99,000.00,019.1,019.1,000.0,027.2,020.6,11.0,0000.0,0000.86,0002.23,0000.63
2023-12-02 15:07:00,SystemResetWarning,0821.0,4.99,000.00,019.0,018.8,000.0,027.2,020.2,11.1,0000.0,0000.82,0002.14,0000.62
2023-12-02 15:08:00,SystemResetWarning,0821.0,5.01,000.00,019.0,018.5,000.0,027.2,020.1,11.3,0000.0,0000.80,0002.05,0000.61
2023-12-02 15:09:00,SystemResetWarning,0821.0,5.01,000.00,018.9,018.3,000.0,027.2,020.0,11.4,0000.0,0000.81,0002.07,0000.61
2023-12-02 15:10:00,SystemResetWarning,0821.0,5.00,000.00,018.9,018.1,000.0,027.2,020.0,11.4,0000.0,0000.83,0002.07,0000.60
2023-12-02 15:11:00,SystemResetWarning,0820.9,5.00,000.00,018.9,017.9,000.0,027.2,020.0,11.4,0000.0,0000.82,0001.95,0000.60
2023-12-02 15:12:00,SystemResetWarning,0821.0,5.01,000.00,018.8,017.7,000.0,027.2,020.0,11.3,0000.0,0000.82,0001.92,0000.61
2023-12-02 15:13:00,SystemResetWarning,0820.9,5.01,000.00,018.8,017.6,000.0,027.2,020.0,11.5,0000.0,0000.85,0001.78,0000.62
2023-12-02 15:14:00,SystemResetWarning,0821.0,5.00,000.00,018.8,017.5,000.0,027.2,020.0,11.6,0000.0,0000.86,0001.68,0000.63
2023-12-02 15:15:00,SystemResetWarning,0821.0,5.00,000.00,018.8,017.5,000.0,027.3,020.0,11.8,0000.0,0000.89,0001.76,0000.65
2023-12-02 15:16:00,SystemResetWarning,0821.0,4.99,000.00,018.8,017.4,000.0,027.3,020.0,11.6,0000.0,0000.91,0001.83,0000.66
2023-12-02 15:17:00,SystemResetWarning,0820.9,5.00,000.00,018.8,017.4,000.0,027.3,020.0,11.8,0000.0,0000.89,0001.54,0000.66
2023-12-02 15:18:00,SystemResetWarning,0821.0,5.00,000.00,018.8,017.4,000.0,027.3,020.0,11.6,0000.0,0000.90,0001.44,0000.67
2023-12-02 15:19:00,SystemResetWarning,0821.1,5.00,000.00,018.7,017.3,000.0,027.3,020.0,11.7,0000.0,0000.93,0002.28,0000.68
2023-12-02 15:20:00,SystemResetWarning,0821.0,5.00,000.00,018.7,017.3,000.0,027.3,020.0,12.0,0000.0,0000.94,0002.75,0000.68
2023-12-02 15:21:00,SystemResetWarning,0821.0,5.01,000.00,018.8,017.7,000.0,027.3,020.3,12.0,0000.0,0000.93,0002.72,0000.69
2023-12-02 15:22:00,SystemResetWarning,0821.1,5.00,000.00,018.9,018.9,000.0,027.3,020.9,11.9,0000.0,0000.97,0003.02,0000.70
2023-12-02 15:23:00,SystemResetWarning,0821.1,4.99,000.00,019.0,019.1,000.0,027.3,020.8,11.8,0000.0,0001.00,0003.09,0000.70
2023-12-02 15:24:00,SystemResetWarning,0821.0,4.99,000.00,019.0,018.9,000.0,027.3,020.4,11.8,0000.0,0000.99,0003.08,0000.70
2023-12-02 15:25:00,SystemResetWarning,0821.1,5.01,000.00,019.0,018.7,000.0,027.3,020.1,11.6,0000.0,0001.01,0003.11,0000.69
2023-12-02 15:26:00,SystemResetWarning,0821.1,5.01,000.00,018.9,018.4,000.0,027.3,020.0,12.1,0000.0,0000.99,0003.05,0000.68
2023-12-02 15:27:00,SystemResetWarning,0821.2,5.00,000.00,018.9,018.2,000.0,027.3,020.0,12.2,0000.0,0000.95,0002.95,0000.67
2023-12-02 15:28:00,SystemResetWarning,0821.2,5.00,000.00,018.9,018.0,000.0,027.3,020.0,11.9,0000.0,0000.94,0002.89,0000.68
2023-12-02 15:29:00,SystemResetWarning,0821.2,5.00,000.00,018.9,017.9,000.0,027.3,020.0,11.7,0000.0,0000.95,0002.92,0000.68
2023-12-02 15:30:00,SystemResetWarning,0821.1,5.00,000.00,018.9,017.7,000.0,027.3,020.0,11.6,0000.0,0000.93,0002.13,0000.69
2023-12-02 15:31:00,SystemResetWarning,0821.2,5.00,000.00,018.8,017.6,000.0,027.3,020.0,11.6,0000.0,0000.91,0001.59,0000.69
2023-12-02 15:32:00,SystemResetWarning,0821.2,5.00,000.00,018.8,017.6,000.0,027.3,020.0,11.7,0000.0,0000.92,0002.26,0000.68
2023-12-02 15:33:00,SystemResetWarning,0821.2,5.00,000.00,018.8,017.6,000.0,027.3,020.0,11.8,0000.0,0000.89,0002.31,0000.67
2023-12-02 15:34:00,SystemResetWarning,0821.1,5.00,000.00,018.8,017.6,000.0,027.3,020.0,11.5,0000.0,0000.87,0002.29,0000.68
2023-12-02 15:35:00,SystemResetWarning,0821.2,5.00,000.00,018.8,017.5,000.0,027.3,020.0,11.4,0000.0,0000.88,0002.29,0000.68
2023-12-02 15:36:00,SystemResetWarning,0821.2,5.00,000.00,018.7,017.5,000.0,027.3,020.0,11.4,0000.0,0000.90,0002.32,0000.69
2023-12-02 15:37:00,SystemResetWarning,0821.2,5.00,000.00,018.7,017.5,000.0,027.3,020.0,11.5,0000.0,0000.92,0002.37,0000.70
2023-12-02 15:38:00,SystemResetWarning,0821.2,5.00,000.00,018.7,017.4,000.0,027.3,020.0,11.5,0000.0,0000.95,0002.51,0000.71
2023-12-02 15:39:00,SystemResetWarning,0821.3,5.00,000.00,018.7,017.4,000.0,027.3,020.0,11.2,0000.0,0000.95,0002.58,0000.71
2023-12-02 15:40:00,SystemResetWarning,0821.3,5.00,000.00,018.7,017.4,000.0,027.3,020.0,11.3,0000.0,0000.98,0002.71,0000.71
2023-12-02 15:41:00,SystemResetWarning,0821.3,5.00,000.00,018.7,017.4,000.0,027.3,020.0,11.4,0000.0,0001.00,0002.76,0000.71
2023-12-02 15:42:00,SystemResetWarning,0821.3,5.00,000.00,018.7,017.4,000.0,027.3,020.0,11.3,0000.0,0001.00,0002.76,0000.70
2023-12-02 15:43:00,SystemResetWarning,0821.3,5.00,000.00,018.7,017.5,000.0,027.3,020.1,11.3,0000.0,0001.00,0002.41,0000.70
2023-12-02 15:44:00,SystemResetWarning,0821.3,5.01,000.00,018.8,018.5,000.0,027.3,020.7,11.0,0000.0,0001.02,0001.85,0000.72
2023-12-02 15:45:00,SystemResetWarning,0821.3,4.99,000.00,019.0,019.1,000.0,027.3,020.8,11.0,0000.0,0001.05,0001.85,0000.73
2023-12-02 15:46:00,SystemResetWarning,0821.3,4.99,000.00,019.0,019.0,000.0,027.3,020.5,11.0,0000.0,0001.03,0002.14,0000.72
2023-12-02 15:47:00,SystemResetWarning,0821.2,5.01,000.00,019.0,018.8,000.0,027.3,020.2,11.0,0000.0,0000.99,0002.14,0000.71
2023-12-02 15:48:00,SystemResetWarning,0821.2,5.00,000.00,019.0,018.5,000.0,027.2,020.1,10.9,0000.0,0000.98,0002.11,0000.71
2023-12-02 15:49:00,SystemResetWarning,0821.3,5.00,000.00,018.9,018.3,000.0,027.2,020.0,10.6,0000.0,0000.96,0002.00,0000.72
2023-12-02 15:50:00,SystemResetWarning,0821.3,5.00,000.00,018.9,018.1,000.0,027.3,020.0,10.9,0000.0,0000.99,0002.05,0000.72
2023-12-02 15:51:00,SystemResetWarning,0821.3,5.00,000.00,018.8,018.0,000.0,027.3,020.0,11.0,0000.0,0000.97,0001.92,0000.73
2023-12-02 15:52:00,SystemResetWarning,0821.3,5.00,000.00,018.8,017.9,000.0,027.3,020.0,11.0,0000.0,0000.93,0001.82,0000.72
2023-12-02 15:53:00,SystemResetWarning,0821.2,5.00,000.00,018.8,017.8,000.0,027.3,020.0,10.6,0000.0,0000.91,0001.78,0000.72
2023-12-02 15:54:00,SystemResetWarning,0821.3,5.01,000.00,018.8,017.7,000.0,027.3,020.0,10.5,0000.0,0000.91,0001.81,0000.72
2023-12-02 15:55:00,SystemResetWarning,0821.3,5.00,000.00,018.8,017.6,000.0,027.3,020.0,10.7,0000.0,0000.90,0001.79,0000.72
2023-12-02 15:56:00,SystemResetWarning,0821.3,5.00,000.00,018.8,017.6,000.0,027.3,020.0,10.8,0000.0,0000.87,0001.71,0000.71
2023-12-02 15:57:00,SystemResetWarning,0821.4,5.00,000.00,018.8,017.6,000.0,027.3,020.0,10.9,0000.0,0000.90,0001.59,0000.73
2023-12-02 15:58:00,SystemResetWarning,0821.5,5.00,000.00,018.7,017.6,000.0,027.3,020.0,11.0,0000.0,0000.91,0001.62,0000.72
2023-12-02 15:59:00,SystemResetWarning,0821.3,5.00,000.00,018.7,017.6,000.0,027.3,020.0,11.0,0000.0,0000.90,0001.81,0000.72
